Time,TemperatureF,DewpointF,PressureIn,WindDirection,WindDirectionDegrees,WindSpeedMPH,WindSpeedGustMPH,Humidity,HourlyPrecipIn,Conditions,Clouds,dailyrainin,SoftwareType,DateUTC
2013-06-18 00:01:00,66.0,65.5,29.91,NE,45,17.0,19.0,99,0.36,,,0.02,Rainwise IP-100,2013-06-18 05:01:00,
2013-06-18 00:06:00,66.0,65.5,29.91,East,90,12.0,17.0,99,0.60,,,0.06,Rainwise IP-100,2013-06-18 05:06:00,
2013-06-18 00:11:00,66.0,65.5,29.91,NE,45,7.0,17.0,99,0.42,,,0.08,Rainwise IP-100,2013-06-18 05:11:00,
2013-06-18 00:16:00,66.0,65.5,29.91,NE,45,12.0,15.0,99,0.18,,,0.09,Rainwise IP-100,2013-06-18 05:16:00,
2013-06-18 00:21:00,65.0,64.5,29.91,NE,45,15.0,19.0,99,0.06,,,0.09,Rainwise IP-100,2013-06-18 05:21:00,
2013-06-18 00:26:00,66.0,65.5,29.89,NE,45,2.0,16.0,99,0.12,,,0.11,Rainwise IP-100,2013-06-18 05:26:00,
2013-06-18 00:31:00,65.0,64.5,29.89,ENE,67,6.0,15.0,99,0.12,,,0.11,Rainwise IP-100,2013-06-18 05:31:00,
2013-06-18 00:36:00,66.0,65.5,29.89,ENE,67,8.0,18.0,99,0.06,,,0.12,Rainwise IP-100,2013-06-18 05:36:00,
2013-06-18 00:41:00,66.0,65.5,29.89,NE,45,9.0,14.0,99,0.06,,,0.12,Rainwise IP-100,2013-06-18 05:41:00,
2013-06-18 00:46:00,66.0,65.5,29.89,ENE,67,6.0,12.0,99,0.00,,,0.12,Rainwise IP-100,2013-06-18 05:46:00,
2013-06-18 00:51:00,66.0,65.5,29.89,NE,45,5.0,10.0,99,0.00,,,0.12,Rainwise IP-100,2013-06-18 05:51:00,
2013-06-18 00:56:00,66.0,65.5,29.89,ENE,67,7.0,12.0,99,0.00,,,0.12,Rainwise IP-100,2013-06-18 05:56:00,
2013-06-18 01:01:00,66.0,65.5,29.89,NE,45,12.0,15.0,99,0.00,,,0.12,Rainwise IP-100,2013-06-18 06:01:00,
2013-06-18 01:02:00,66.0,65.5,29.88,NE,45,11.0,15.0,99,0.06,,,0.13,Rainwise IP-100,2013-06-18 06:02:00,
2013-06-18 01:07:00,66.0,65.5,29.88,NE,45,7.0,17.0,99,0.06,,,0.13,Rainwise IP-100,2013-06-18 06:07:00,
2013-06-18 01:12:00,66.0,65.5,29.87,NE,45,7.0,14.0,99,0.00,,,0.13,Rainwise IP-100,2013-06-18 06:12:00,
2013-06-18 01:17:00,66.0,65.5,29.87,NE,45,9.0,15.0,99,0.00,,,0.13,Rainwise IP-100,2013-06-18 06:17:00,
2013-06-18 01:22:00,66.0,65.5,29.86,East,90,6.0,12.0,99,0.00,,,0.13,Rainwise IP-100,2013-06-18 06:22:00,
2013-06-18 01:27:00,66.0,65.5,29.86,ENE,67,3.0,12.0,99,0.00,,,0.13,Rainwise IP-100,2013-06-18 06:27:00,
2013-06-18 01:32:00,66.0,65.5,29.85,NE,45,13.0,15.0,99,0.00,,,0.13,Rainwise IP-100,2013-06-18 06:32:00,
2013-06-18 01:37:00,66.0,65.5,29.85,NE,45,10.0,15.0,99,0.00,,,0.13,Rainwise IP-100,2013-06-18 06:37:00,
2013-06-18 01:42:00,66.0,65.5,29.86,ENE,67,7.0,12.0,99,0.00,,,0.13,Rainwise IP-100,2013-06-18 06:42:00,
2013-06-18 01:47:00,66.0,65.5,29.86,NE,45,7.0,11.0,99,0.00,,,0.13,Rainwise IP-100,2013-06-18 06:47:00,
2013-06-18 01:52:00,66.0,65.5,29.86,NE,45,7.0,11.0,99,0.00,,,0.13,Rainwise IP-100,2013-06-18 06:52:00,
2013-06-18 01:57:00,66.0,65.5,29.86,East,90,5.0,12.0,99,0.00,,,0.13,Rainwise IP-100,2013-06-18 06:57:00,
2013-06-18 02:02:00,66.0,65.5,29.86,NE,45,6.0,9.0,99,0.00,,,0.13,Rainwise IP-100,2013-06-18 07:02:00,
2013-06-18 02:07:00,66.0,65.5,29.86,ENE,67,6.0,11.0,99,0.00,,,0.13,Rainwise IP-100,2013-06-18 07:07:00,
2013-06-18 02:12:00,66.0,65.5,29.85,ESE,112,9.0,10.0,99,0.00,,,0.13,Rainwise IP-100,2013-06-18 07:12:00,
2013-06-18 02:17:00,66.0,65.5,29.85,NE,45,4.0,12.0,99,0.00,,,0.13,Rainwise IP-100,2013-06-18 07:17:00,
2013-06-18 02:22:00,66.0,65.5,29.85,East,90,5.0,12.0,99,0.00,,,0.13,Rainwise IP-100,2013-06-18 07:22:00,
2013-06-18 02:27:00,66.0,65.5,29.85,NE,45,6.0,12.0,99,0.00,,,0.13,Rainwise IP-100,2013-06-18 07:27:00,
2013-06-18 02:32:00,66.0,65.5,29.84,East,90,6.0,9.0,99,0.00,,,0.13,Rainwise IP-100,2013-06-18 07:32:00,
2013-06-18 02:37:00,66.0,65.5,29.84,East,90,6.0,10.0,99,0.00,,,0.13,Rainwise IP-100,2013-06-18 07:37:00,
2013-06-18 02:42:00,66.0,65.5,29.85,NE,45,0.0,6.0,99,0.00,,,0.13,Rainwise IP-100,2013-06-18 07:42:00,
2013-06-18 02:47:00,66.0,65.5,29.85,East,90,0.0,9.0,99,0.00,,,0.13,Rainwise IP-100,2013-06-18 07:47:00,
2013-06-18 02:52:00,66.0,65.5,29.85,ENE,67,6.0,7.0,99,0.00,,,0.13,Rainwise IP-100,2013-06-18 07:52:00,
2013-06-18 02:57:00,66.0,65.5,29.84,SE,135,2.0,7.0,99,0.00,,,0.13,Rainwise IP-100,2013-06-18 07:57:00,
2013-06-18 03:02:00,66.0,65.5,29.84,SE,135,2.0,8.0,99,0.00,,,0.13,Rainwise IP-100,2013-06-18 08:02:00,
2013-06-18 03:08:00,66.0,65.5,29.84,SE,135,2.0,8.0,99,0.00,,,0.13,Rainwise IP-100,2013-06-18 08:08:00,
2013-06-18 03:31:00,66.0,65.5,29.84,SSE,157,2.0,8.0,99,0.00,,,0.13,Rainwise IP-100,2013-06-18 08:31:00,
2013-06-18 03:36:00,66.0,65.5,29.82,WNW,292,1.0,7.0,99,0.00,,,0.13,Rainwise IP-100,2013-06-18 08:36:00,
2013-06-18 03:41:00,66.0,65.5,29.82,SE,135,4.0,6.0,99,0.00,,,0.13,Rainwise IP-100,2013-06-18 08:41:00,
2013-06-18 03:46:00,66.0,65.5,29.82,South,180,5.0,10.0,99,0.00,,,0.13,Rainwise IP-100,2013-06-18 08:46:00,
2013-06-18 03:51:00,66.0,65.5,29.82,South,180,5.0,11.0,99,0.00,,,0.13,Rainwise IP-100,2013-06-18 08:51:00,
2013-06-18 03:56:00,66.0,65.5,29.82,SW,225,4.0,9.0,99,0.00,,,0.13,Rainwise IP-100,2013-06-18 08:56:00,
2013-06-18 04:01:00,66.0,65.5,29.82,SW,225,4.0,6.0,99,0.00,,,0.13,Rainwise IP-100,2013-06-18 09:01:00,
2013-06-18 04:06:00,66.0,65.5,29.82,SW,225,4.0,6.0,99,0.00,,,0.13,Rainwise IP-100,2013-06-18 09:06:00,
2013-06-18 04:11:00,66.0,65.5,29.82,SW,225,4.0,6.0,99,0.00,,,0.13,Rainwise IP-100,2013-06-18 09:11:00,
2013-06-18 04:16:00,66.0,65.5,29.82,SW,225,4.0,6.0,99,0.00,,,0.13,Rainwise IP-100,2013-06-18 09:16:00,
2013-06-18 04:21:00,66.0,65.5,29.82,SW,225,4.0,6.0,99,0.00,,,0.13,Rainwise IP-100,2013-06-18 09:21:00,
2013-06-18 04:26:00,66.0,65.5,29.86,WNW,292,3.0,6.0,99,0.12,,,0.15,Rainwise IP-100,2013-06-18 09:26:00,
2013-06-18 04:31:00,66.0,65.5,29.86,WNW,292,3.0,3.0,99,0.12,,,0.15,Rainwise IP-100,2013-06-18 09:31:00,
2013-06-18 04:36:00,66.0,65.5,29.87,SW,225,1.0,7.0,99,0.00,,,0.15,Rainwise IP-100,2013-06-18 09:36:00,
2013-06-18 04:41:00,66.0,65.5,29.87,East,90,8.0,9.0,99,0.00,,,0.15,Rainwise IP-100,2013-06-18 09:41:00,
2013-06-18 04:46:00,65.0,64.5,29.88,South,180,5.0,13.0,99,0.00,,,0.15,Rainwise IP-100,2013-06-18 09:46:00,
2013-06-18 04:51:00,65.0,64.5,29.88,South,180,5.0,6.0,99,0.00,,,0.15,Rainwise IP-100,2013-06-18 09:51:00,
2013-06-18 06:29:00,66.0,65.5,29.90,ENE,67,5.0,6.0,99,0.00,,,0.15,Rainwise IP-100,2013-06-18 11:29:00,
2013-06-18 06:34:00,66.0,65.5,29.90,ENE,67,9.0,9.0,99,0.00,,,0.15,Rainwise IP-100,2013-06-18 11:34:00,
2013-06-18 06:39:00,66.0,65.5,29.90,NE,45,5.0,9.0,99,0.00,,,0.15,Rainwise IP-100,2013-06-18 11:39:00,
2013-06-18 06:44:00,66.0,65.5,29.90,ENE,67,9.0,9.0,99,0.00,,,0.15,Rainwise IP-100,2013-06-18 11:44:00,
2013-06-18 06:58:00,66.0,64.5,29.91,NE,45,8.0,9.0,96,0.00,,,0.15,Rainwise IP-100,2013-06-18 11:58:00,
2013-06-18 07:03:00,66.0,64.5,29.91,NE,45,3.0,12.0,96,0.00,,,0.15,Rainwise IP-100,2013-06-18 12:03:00,
2013-06-18 07:09:00,67.0,66.3,29.91,ENE,67,3.0,9.0,97,0.00,,,0.15,Rainwise IP-100,2013-06-18 12:09:00,
2013-06-18 07:14:00,68.0,66.7,29.91,ENE,67,7.0,9.0,95,0.00,,,0.15,Rainwise IP-100,2013-06-18 12:14:00,
2013-06-18 07:19:00,68.0,65.5,29.91,ENE,67,6.0,10.0,92,0.00,,,0.15,Rainwise IP-100,2013-06-18 12:19:00,
2013-06-18 07:23:00,68.0,65.5,29.92,ENE,67,7.0,9.0,92,0.00,,,0.15,Rainwise IP-100,2013-06-18 12:23:00,
2013-06-18 07:29:00,69.0,66.3,29.92,NE,45,2.0,10.0,91,0.00,,,0.15,Rainwise IP-100,2013-06-18 12:29:00,
2013-06-18 07:34:00,69.0,66.0,29.92,ENE,67,4.0,8.0,90,0.00,,,0.15,Rainwise IP-100,2013-06-18 12:34:00,
2013-06-18 07:39:00,68.0,65.0,29.92,NE,45,4.0,12.0,90,0.00,,,0.15,Rainwise IP-100,2013-06-18 12:39:00,
2013-06-18 07:44:00,67.0,64.5,29.93,NE,45,7.0,13.0,91,0.00,,,0.15,Rainwise IP-100,2013-06-18 12:44:00,
2013-06-18 07:49:00,68.0,65.5,29.93,NE,45,7.0,10.0,91,0.00,,,0.15,Rainwise IP-100,2013-06-18 12:49:00,
2013-06-18 07:54:00,69.0,66.0,29.93,NE,45,8.0,9.0,90,0.00,,,0.15,Rainwise IP-100,2013-06-18 12:54:00,
2013-06-18 07:59:00,68.0,64.5,29.93,NNE,22,13.0,14.0,89,0.00,,,0.15,Rainwise IP-100,2013-06-18 12:59:00,
2013-06-18 08:04:00,69.0,65.0,29.93,ENE,67,10.0,16.0,88,0.00,,,0.15,Rainwise IP-100,2013-06-18 13:04:00,
2013-06-18 08:09:00,69.0,65.0,29.93,ENE,67,11.0,16.0,88,0.00,,,0.15,Rainwise IP-100,2013-06-18 13:09:00,
2013-06-18 08:14:00,70.0,66.3,29.93,SW,225,4.0,17.0,88,0.00,,,0.15,Rainwise IP-100,2013-06-18 13:14:00,
2013-06-18 08:19:00,70.0,66.0,29.93,NE,45,7.0,10.0,87,0.00,,,0.15,Rainwise IP-100,2013-06-18 13:19:00,
2013-06-18 08:24:00,70.0,65.0,29.93,NE,45,9.0,12.0,84,0.00,,,0.15,Rainwise IP-100,2013-06-18 13:24:00,
2013-06-18 08:29:00,70.0,65.5,29.93,ENE,67,3.0,13.0,85,0.00,,,0.15,Rainwise IP-100,2013-06-18 13:29:00,
2013-06-18 08:34:00,70.0,65.0,29.95,NE,45,12.0,14.0,84,0.00,,,0.15,Rainwise IP-100,2013-06-18 13:34:00,
2013-06-18 08:39:00,71.0,65.5,29.95,East,90,6.0,16.0,83,0.00,,,0.15,Rainwise IP-100,2013-06-18 13:39:00,
2013-06-18 08:44:00,72.0,67.0,29.93,NE,45,5.0,13.0,85,0.00,,,0.15,Rainwise IP-100,2013-06-18 13:44:00,
2013-06-18 08:49:00,72.0,66.7,29.93,East,90,0.0,9.0,84,0.00,,,0.15,Rainwise IP-100,2013-06-18 13:49:00,
2013-06-18 08:54:00,73.0,66.7,29.94,NNW,337,0.0,10.0,81,0.00,,,0.15,Rainwise IP-100,2013-06-18 13:54:00,
2013-06-18 08:59:00,73.0,65.5,29.94,NE,45,4.0,6.0,77,0.00,,,0.15,Rainwise IP-100,2013-06-18 13:59:00,
2013-06-18 09:04:00,74.0,66.3,29.93,NW,315,1.0,9.0,77,0.00,,,0.15,Rainwise IP-100,2013-06-18 14:04:00,
2013-06-18 09:09:00,74.0,66.3,29.93,ESE,112,3.0,7.0,77,0.00,,,0.15,Rainwise IP-100,2013-06-18 14:09:00,
2013-06-18 09:14:00,74.0,66.0,29.94,North,360,0.0,8.0,75,0.00,,,0.15,Rainwise IP-100,2013-06-18 14:14:00,
2013-06-18 09:19:00,74.0,65.5,29.94,NE,45,7.0,7.0,74,0.00,,,0.15,Rainwise IP-100,2013-06-18 14:19:00,
2013-06-18 09:24:00,75.0,66.0,29.94,ENE,67,5.0,9.0,73,0.00,,,0.15,Rainwise IP-100,2013-06-18 14:24:00,
2013-06-18 09:29:00,75.0,67.0,29.94,NE,45,1.0,7.0,76,0.00,,,0.15,Rainwise IP-100,2013-06-18 14:29:00,
2013-06-18 09:34:00,74.0,66.3,29.94,North,360,6.0,6.0,76,0.00,,,0.15,Rainwise IP-100,2013-06-18 14:34:00,
2013-06-18 09:39:00,74.0,66.3,29.94,ENE,67,4.0,10.0,76,0.00,,,0.15,Rainwise IP-100,2013-06-18 14:39:00,
2013-06-18 09:44:00,74.0,65.5,29.94,ENE,67,8.0,9.0,74,0.00,,,0.15,Rainwise IP-100,2013-06-18 14:44:00,
2013-06-18 09:49:00,75.0,66.7,29.94,ENE,67,0.0,12.0,75,0.00,,,0.15,Rainwise IP-100,2013-06-18 14:49:00,
2013-06-18 09:54:00,76.0,67.5,29.94,East,90,0.0,4.0,75,0.00,,,0.15,Rainwise IP-100,2013-06-18 14:54:00,
2013-06-18 09:59:00,76.0,66.7,29.93,East,90,2.0,5.0,73,0.00,,,0.15,Rainwise IP-100,2013-06-18 14:59:00,
2013-06-18 10:04:00,77.0,66.7,29.93,NNE,22,5.0,6.0,70,0.00,,,0.15,Rainwise IP-100,2013-06-18 15:04:00,
2013-06-18 10:09:00,76.0,64.0,29.93,ENE,67,3.0,6.0,67,0.00,,,0.15,Rainwise IP-100,2013-06-18 15:09:00,
2013-06-18 10:14:00,76.0,65.5,29.94,NE,45,5.0,10.0,70,0.00,,,0.15,Rainwise IP-100,2013-06-18 15:14:00,
2013-06-18 10:19:00,75.0,64.5,29.94,NE,45,3.0,12.0,69,0.00,,,0.15,Rainwise IP-100,2013-06-18 15:19:00,
2013-06-18 10:24:00,76.0,66.3,29.94,ENE,67,6.0,12.0,72,0.00,,,0.15,Rainwise IP-100,2013-06-18 15:24:00,
2013-06-18 10:29:00,77.0,66.7,29.94,NNW,337,2.0,12.0,70,0.00,,,0.15,Rainwise IP-100,2013-06-18 15:29:00,
2013-06-18 10:34:00,76.0,64.5,29.94,NNW,337,2.0,9.0,68,0.00,,,0.15,Rainwise IP-100,2013-06-18 15:34:00,
2013-06-18 10:39:00,78.0,66.3,29.95,WNW,292,0.0,7.0,67,0.00,,,0.15,Rainwise IP-100,2013-06-18 15:39:00,
2013-06-18 10:44:00,78.0,66.3,29.93,NE,45,3.0,7.0,67,0.00,,,0.15,Rainwise IP-100,2013-06-18 15:44:00,
2013-06-18 10:49:00,78.0,64.5,29.93,NE,45,1.0,7.0,63,0.00,,,0.15,Rainwise IP-100,2013-06-18 15:49:00,
2013-06-18 10:54:00,77.0,65.5,29.94,East,90,6.0,10.0,67,0.00,,,0.15,Rainwise IP-100,2013-06-18 15:54:00,
2013-06-18 10:59:00,78.0,65.0,29.94,East,90,6.0,9.0,64,0.00,,,0.15,Rainwise IP-100,2013-06-18 15:59:00,
2013-06-18 11:04:00,77.0,64.5,29.94,ENE,67,5.0,9.0,65,0.00,,,0.15,Rainwise IP-100,2013-06-18 16:04:00,
2013-06-18 11:09:00,78.0,65.0,29.94,NE,45,2.0,9.0,64,0.00,,,0.15,Rainwise IP-100,2013-06-18 16:09:00,
2013-06-18 11:14:00,79.0,66.0,29.94,East,90,2.0,11.0,64,0.00,,,0.15,Rainwise IP-100,2013-06-18 16:14:00,
2013-06-18 11:19:00,79.0,66.3,29.94,NNE,22,4.0,7.0,65,0.00,,,0.15,Rainwise IP-100,2013-06-18 16:19:00,
2013-06-18 11:24:00,80.0,65.5,29.93,ENE,67,4.0,7.0,61,0.00,,,0.15,Rainwise IP-100,2013-06-18 16:24:00,
2013-06-18 11:29:00,79.0,65.0,29.93,NE,45,1.0,6.0,62,0.00,,,0.15,Rainwise IP-100,2013-06-18 16:29:00,
2013-06-18 11:34:00,80.0,65.5,29.93,ENE,67,4.0,6.0,61,0.00,,,0.15,Rainwise IP-100,2013-06-18 16:34:00,
2013-06-18 11:39:00,80.0,65.5,29.93,East,90,6.0,9.0,61,0.00,,,0.15,Rainwise IP-100,2013-06-18 16:39:00,
2013-06-18 11:44:00,81.0,66.3,29.93,NE,45,4.0,7.0,61,0.00,,,0.15,Rainwise IP-100,2013-06-18 16:44:00,
2013-06-18 11:49:00,81.0,67.0,29.93,NW,315,5.0,6.0,63,0.00,,,0.15,Rainwise IP-100,2013-06-18 16:49:00,
2013-06-18 11:54:00,78.0,63.0,29.94,ENE,67,6.0,9.0,60,0.00,,,0.15,Rainwise IP-100,2013-06-18 16:54:00,
2013-06-18 11:59:00,81.0,66.3,29.94,East,90,5.0,7.0,61,0.00,,,0.15,Rainwise IP-100,2013-06-18 16:59:00,
2013-06-18 12:04:00,80.0,65.5,29.93,NNE,22,2.0,10.0,61,0.00,,,0.15,Rainwise IP-100,2013-06-18 17:04:00,
2013-06-18 12:09:00,80.0,65.5,29.93,ENE,67,5.0,9.0,61,0.00,,,0.15,Rainwise IP-100,2013-06-18 17:09:00,
2013-06-18 12:14:00,80.0,65.5,29.93,East,90,3.0,8.0,61,0.00,,,0.15,Rainwise IP-100,2013-06-18 17:14:00,
2013-06-18 12:19:00,79.0,63.5,29.93,NNE,22,6.0,10.0,59,0.00,,,0.15,Rainwise IP-100,2013-06-18 17:19:00,
2013-06-18 12:24:00,80.0,65.0,29.93,NE,45,1.0,9.0,60,0.00,,,0.15,Rainwise IP-100,2013-06-18 17:24:00,
2013-06-18 12:29:00,81.0,66.0,29.93,NE,45,4.0,7.0,60,0.00,,,0.15,Rainwise IP-100,2013-06-18 17:29:00,
2013-06-18 12:34:00,81.0,65.0,29.93,East,90,2.0,9.0,58,0.00,,,0.15,Rainwise IP-100,2013-06-18 17:34:00,
2013-06-18 12:39:00,82.0,65.5,29.93,NE,45,0.0,7.0,57,0.00,,,0.15,Rainwise IP-100,2013-06-18 17:39:00,
2013-06-18 12:44:00,83.0,65.5,29.92,SW,225,0.0,6.0,55,0.00,,,0.15,Rainwise IP-100,2013-06-18 17:44:00,
2013-06-18 12:49:00,82.0,63.0,29.92,SE,135,1.0,8.0,53,0.00,,,0.15,Rainwise IP-100,2013-06-18 17:49:00,
2013-06-18 12:54:00,82.0,64.5,29.92,NE,45,5.0,9.0,55,0.00,,,0.15,Rainwise IP-100,2013-06-18 17:54:00,
2013-06-18 12:59:00,82.0,65.5,29.92,NE,45,3.0,9.0,57,0.00,,,0.15,Rainwise IP-100,2013-06-18 17:59:00,
2013-06-18 13:04:00,83.0,64.0,29.91,NE,45,4.0,4.0,53,0.00,,,0.15,Rainwise IP-100,2013-06-18 18:04:00,
2013-06-18 13:09:00,84.0,66.0,29.91,East,90,3.0,9.0,54,0.00,,,0.15,Rainwise IP-100,2013-06-18 18:09:00,
2013-06-18 13:14:00,84.0,64.0,29.91,WNW,292,6.0,7.0,51,0.00,,,0.15,Rainwise IP-100,2013-06-18 18:14:00,
2013-06-18 13:19:00,83.0,65.5,29.91,NE,45,3.0,9.0,55,0.00,,,0.15,Rainwise IP-100,2013-06-18 18:19:00,
2013-06-18 13:24:00,84.0,66.0,29.91,NE,45,2.0,7.0,54,0.00,,,0.15,Rainwise IP-100,2013-06-18 18:24:00,
2013-06-18 13:29:00,84.0,63.5,29.91,East,90,4.0,8.0,50,0.00,,,0.15,Rainwise IP-100,2013-06-18 18:29:00,
2013-06-18 13:34:00,84.0,64.0,29.90,East,90,1.0,6.0,51,0.00,,,0.15,Rainwise IP-100,2013-06-18 18:34:00,
2013-06-18 13:39:00,85.0,66.0,29.90,East,90,1.0,6.0,53,0.00,,,0.15,Rainwise IP-100,2013-06-18 18:39:00,
2013-06-18 13:44:00,85.0,64.5,29.90,East,90,7.0,7.0,50,0.00,,,0.15,Rainwise IP-100,2013-06-18 18:44:00,
2013-06-18 13:49:00,83.0,64.0,29.90,ENE,67,6.0,8.0,53,0.00,,,0.15,Rainwise IP-100,2013-06-18 18:49:00,
2013-06-18 13:54:00,83.0,63.0,29.91,NE,45,2.0,9.0,51,0.00,,,0.15,Rainwise IP-100,2013-06-18 18:54:00,
2013-06-18 13:59:00,84.0,66.0,29.91,NE,45,5.0,7.0,54,0.00,,,0.15,Rainwise IP-100,2013-06-18 18:59:00,
2013-06-18 14:04:00,85.0,66.0,29.90,NW,315,2.0,6.0,53,0.00,,,0.15,Rainwise IP-100,2013-06-18 19:04:00,
2013-06-18 14:09:00,85.0,68.0,29.90,NNW,337,1.0,6.0,57,0.00,,,0.15,Rainwise IP-100,2013-06-18 19:09:00,
2013-06-18 14:14:00,85.0,66.0,29.90,NW,315,2.0,5.0,53,0.00,,,0.15,Rainwise IP-100,2013-06-18 19:14:00,
2013-06-18 14:19:00,86.0,65.5,29.90,North,360,0.0,6.0,50,0.00,,,0.15,Rainwise IP-100,2013-06-18 19:19:00,
2013-06-18 14:24:00,86.0,65.5,29.89,NE,45,1.0,6.0,50,0.00,,,0.15,Rainwise IP-100,2013-06-18 19:24:00,
2013-06-18 14:29:00,85.0,65.0,29.89,ESE,112,1.0,3.0,51,0.00,,,0.15,Rainwise IP-100,2013-06-18 19:29:00,
2013-06-18 14:34:00,86.0,65.5,29.89,SW,225,0.0,4.0,50,0.00,,,0.15,Rainwise IP-100,2013-06-18 19:34:00,
2013-06-18 14:39:00,85.0,65.0,29.89,South,180,0.0,5.0,51,0.00,,,0.15,Rainwise IP-100,2013-06-18 19:39:00,
2013-06-18 14:44:00,85.0,66.0,29.89,NNE,22,2.0,4.0,53,0.00,,,0.15,Rainwise IP-100,2013-06-18 19:44:00,
2013-06-18 14:49:00,86.0,66.0,29.89,NE,45,1.0,4.0,51,0.00,,,0.15,Rainwise IP-100,2013-06-18 19:49:00,
2013-06-18 14:54:00,86.0,65.5,29.89,NE,45,4.0,6.0,50,0.00,,,0.15,Rainwise IP-100,2013-06-18 19:54:00,
2013-06-18 14:59:00,86.0,64.0,29.89,East,90,1.0,6.0,48,0.00,,,0.15,Rainwise IP-100,2013-06-18 19:59:00,
2013-06-18 15:04:00,87.0,65.0,29.88,NE,45,1.0,4.0,48,0.00,,,0.15,Rainwise IP-100,2013-06-18 20:04:00,
2013-06-18 15:09:00,86.0,64.5,29.88,East,90,0.0,5.0,49,0.00,,,0.15,Rainwise IP-100,2013-06-18 20:09:00,
2013-06-18 15:14:00,87.0,66.3,29.88,SSE,157,1.0,4.0,50,0.00,,,0.15,Rainwise IP-100,2013-06-18 20:14:00,
2013-06-18 15:19:00,88.0,66.7,29.88,South,180,0.0,4.0,49,0.00,,,0.15,Rainwise IP-100,2013-06-18 20:19:00,
2013-06-18 15:24:00,87.0,65.0,29.87,NNW,337,2.0,7.0,48,0.00,,,0.15,Rainwise IP-100,2013-06-18 20:24:00,
2013-06-18 15:29:00,87.0,65.0,29.87,South,180,1.0,6.0,48,0.00,,,0.15,Rainwise IP-100,2013-06-18 20:29:00,
2013-06-18 15:34:00,88.0,66.7,29.87,South,180,0.0,3.0,49,0.00,,,0.15,Rainwise IP-100,2013-06-18 20:34:00,
2013-06-18 15:39:00,87.0,66.7,29.87,SE,135,2.0,4.0,51,0.00,,,0.15,Rainwise IP-100,2013-06-18 20:39:00,
2013-06-18 15:44:00,87.0,65.5,29.88,NE,45,0.0,4.0,49,0.00,,,0.15,Rainwise IP-100,2013-06-18 20:44:00,
2013-06-18 15:49:00,86.0,65.5,29.88,SE,135,4.0,5.0,50,0.00,,,0.15,Rainwise IP-100,2013-06-18 20:49:00,
2013-06-18 15:54:00,86.0,67.5,29.88,South,180,2.0,6.0,54,0.00,,,0.15,Rainwise IP-100,2013-06-18 20:54:00,
2013-06-18 15:59:00,85.0,67.5,29.88,SW,225,4.0,5.0,56,0.00,,,0.15,Rainwise IP-100,2013-06-18 20:59:00,
2013-06-18 16:04:00,86.0,68.0,29.88,SW,225,0.0,4.0,55,0.00,,,0.15,Rainwise IP-100,2013-06-18 21:04:00,
2013-06-18 16:09:00,87.0,69.3,29.88,WSW,247,3.0,4.0,56,0.00,,,0.15,Rainwise IP-100,2013-06-18 21:09:00,
2013-06-18 16:14:00,85.0,67.5,29.89,West,270,2.0,6.0,56,0.00,,,0.15,Rainwise IP-100,2013-06-18 21:14:00,
2013-06-18 16:19:00,86.0,70.0,29.89,West,270,0.0,5.0,59,0.00,,,0.15,Rainwise IP-100,2013-06-18 21:19:00,
2013-06-18 16:24:00,86.0,66.7,29.87,South,180,1.0,2.0,53,0.00,,,0.15,Rainwise IP-100,2013-06-18 21:24:00,
2013-06-18 16:29:00,87.0,68.5,29.87,WSW,247,0.0,6.0,54,0.00,,,0.15,Rainwise IP-100,2013-06-18 21:29:00,
2013-06-18 16:34:00,87.0,69.0,29.87,WSW,247,1.0,6.0,55,0.00,,,0.15,Rainwise IP-100,2013-06-18 21:34:00,
2013-06-18 16:39:00,86.0,68.0,29.87,East,90,0.0,6.0,55,0.00,,,0.15,Rainwise IP-100,2013-06-18 21:39:00,
2013-06-18 16:44:00,87.0,68.5,29.87,WSW,247,2.0,5.0,54,0.00,,,0.15,Rainwise IP-100,2013-06-18 21:44:00,
2013-06-18 16:49:00,88.0,67.5,29.87,SW,225,0.0,3.0,51,0.00,,,0.15,Rainwise IP-100,2013-06-18 21:49:00,
2013-06-18 16:54:00,86.0,68.0,29.87,SE,135,4.0,7.0,55,0.00,,,0.15,Rainwise IP-100,2013-06-18 21:54:00,
2013-06-18 16:59:00,87.0,69.0,29.87,South,180,3.0,5.0,55,0.00,,,0.15,Rainwise IP-100,2013-06-18 21:59:00,
2013-06-18 17:04:00,86.0,69.0,29.87,WSW,247,1.0,6.0,57,0.00,,,0.15,Rainwise IP-100,2013-06-18 22:04:00,
2013-06-18 17:09:00,87.0,69.3,29.87,SW,225,0.0,2.0,56,0.00,,,0.15,Rainwise IP-100,2013-06-18 22:09:00,
2013-06-18 17:14:00,87.0,70.0,29.86,SW,225,0.0,5.0,57,0.00,,,0.15,Rainwise IP-100,2013-06-18 22:14:00,
2013-06-18 17:19:00,86.0,68.5,29.86,West,270,1.0,6.0,56,0.00,,,0.15,Rainwise IP-100,2013-06-18 22:19:00,
2013-06-18 17:24:00,86.0,68.5,29.86,SW,225,0.0,4.0,56,0.00,,,0.15,Rainwise IP-100,2013-06-18 22:24:00,
2013-06-18 17:29:00,87.0,69.0,29.86,WSW,247,2.0,2.0,55,0.00,,,0.15,Rainwise IP-100,2013-06-18 22:29:00,
2013-06-18 17:34:00,86.0,68.5,29.85,SW,225,3.0,4.0,56,0.00,,,0.15,Rainwise IP-100,2013-06-18 22:34:00,
2013-06-18 17:39:00,86.0,70.5,29.85,WSW,247,0.0,4.0,60,0.00,,,0.15,Rainwise IP-100,2013-06-18 22:39:00,
2013-06-18 17:44:00,86.0,69.0,29.85,SW,225,1.0,4.0,57,0.00,,,0.15,Rainwise IP-100,2013-06-18 22:44:00,
2013-06-18 17:49:00,86.0,68.5,29.85,WSW,247,2.0,3.0,56,0.00,,,0.15,Rainwise IP-100,2013-06-18 22:49:00,
2013-06-18 17:54:00,86.0,68.0,29.85,SSE,157,1.0,4.0,55,0.00,,,0.15,Rainwise IP-100,2013-06-18 22:54:00,
2013-06-18 17:59:00,85.0,69.7,29.85,West,270,0.0,6.0,60,0.00,,,0.15,Rainwise IP-100,2013-06-18 22:59:00,
2013-06-18 18:04:00,84.0,69.3,29.87,West,270,1.0,3.0,61,0.00,,,0.15,Rainwise IP-100,2013-06-18 23:04:00,
2013-06-18 18:09:00,84.0,69.3,29.87,West,270,1.0,3.0,61,0.00,,,0.15,Rainwise IP-100,2013-06-18 23:09:00,
2013-06-18 18:14:00,83.0,69.3,29.87,West,270,1.0,2.0,63,0.00,,,0.15,Rainwise IP-100,2013-06-18 23:14:00,
2013-06-18 18:19:00,82.0,68.0,29.87,West,270,0.0,3.0,63,0.00,,,0.15,Rainwise IP-100,2013-06-18 23:19:00,
2013-06-18 18:24:00,81.0,69.3,29.87,WSW,247,1.0,3.0,67,0.00,,,0.15,Rainwise IP-100,2013-06-18 23:24:00,
2013-06-18 18:29:00,81.0,69.3,29.87,WSW,247,0.0,2.0,67,0.00,,,0.15,Rainwise IP-100,2013-06-18 23:29:00,
2013-06-18 18:34:00,81.0,69.3,29.87,WSW,247,0.0,0.0,67,0.00,,,0.15,Rainwise IP-100,2013-06-18 23:34:00,
2013-06-18 18:39:00,81.0,69.7,29.87,WSW,247,1.0,1.0,68,0.00,,,0.15,Rainwise IP-100,2013-06-18 23:39:00,
2013-06-18 18:44:00,81.0,69.3,29.87,WSW,247,0.0,2.0,67,0.00,,,0.15,Rainwise IP-100,2013-06-18 23:44:00,
2013-06-18 18:49:00,81.0,69.7,29.87,WSW,247,1.0,2.0,68,0.00,,,0.15,Rainwise IP-100,2013-06-18 23:49:00,
2013-06-18 18:54:00,81.0,70.0,29.88,WSW,247,2.0,2.0,69,0.00,,,0.15,Rainwise IP-100,2013-06-18 23:54:00,
2013-06-18 18:59:00,81.0,70.5,29.88,WSW,247,1.0,2.0,70,0.00,,,0.15,Rainwise IP-100,2013-06-18 23:59:00,
2013-06-18 19:04:00,80.0,69.7,29.89,WSW,247,1.0,3.0,71,0.00,,,0.15,Rainwise IP-100,2013-06-19 00:04:00,
2013-06-18 19:09:00,80.0,69.7,29.89,WSW,247,2.0,3.0,71,0.00,,,0.15,Rainwise IP-100,2013-06-19 00:09:00,
2013-06-18 19:14:00,79.0,70.5,29.89,WSW,247,3.0,3.0,75,0.00,,,0.15,Rainwise IP-100,2013-06-19 00:14:00,
2013-06-18 19:19:00,78.0,70.5,29.89,WSW,247,0.0,3.0,77,0.00,,,0.15,Rainwise IP-100,2013-06-19 00:19:00,
2013-06-18 19:24:00,78.0,70.5,29.89,WSW,247,2.0,2.0,77,0.00,,,0.15,Rainwise IP-100,2013-06-19 00:24:00,
2013-06-18 19:29:00,77.0,70.0,29.89,WSW,247,2.0,3.0,79,0.00,,,0.15,Rainwise IP-100,2013-06-19 00:29:00,
2013-06-18 19:34:00,77.0,70.5,29.90,WSW,247,2.0,3.0,80,0.00,,,0.15,Rainwise IP-100,2013-06-19 00:34:00,
2013-06-18 19:39:00,76.0,70.0,29.90,WSW,247,2.0,3.0,82,0.00,,,0.15,Rainwise IP-100,2013-06-19 00:39:00,
2013-06-18 19:44:00,76.0,71.3,29.90,WSW,247,1.0,3.0,85,0.00,,,0.15,Rainwise IP-100,2013-06-19 00:44:00,
2013-06-18 19:49:00,75.0,70.0,29.90,WSW,247,1.0,3.0,84,0.00,,,0.15,Rainwise IP-100,2013-06-19 00:49:00,
2013-06-18 19:54:00,75.0,70.0,29.90,WSW,247,2.0,3.0,84,0.00,,,0.15,Rainwise IP-100,2013-06-19 00:54:00,
2013-06-18 19:59:00,75.0,70.5,29.90,WSW,247,2.0,4.0,85,0.00,,,0.15,Rainwise IP-100,2013-06-19 00:59:00,
2013-06-18 20:04:00,74.0,70.0,29.89,WSW,247,2.0,3.0,87,0.00,,,0.15,Rainwise IP-100,2013-06-19 01:04:00,
2013-06-18 20:09:00,74.0,71.0,29.89,WSW,247,2.0,3.0,89,0.00,,,0.15,Rainwise IP-100,2013-06-19 01:09:00,
2013-06-18 20:14:00,74.0,71.3,29.89,WSW,247,1.0,3.0,90,0.00,,,0.15,Rainwise IP-100,2013-06-19 01:14:00,
2013-06-18 20:19:00,73.0,70.0,29.89,WSW,247,0.0,3.0,90,0.00,,,0.15,Rainwise IP-100,2013-06-19 01:19:00,
2013-06-18 20:24:00,74.0,71.0,29.89,WSW,247,0.0,0.0,89,0.00,,,0.15,Rainwise IP-100,2013-06-19 01:24:00,
2013-06-18 20:29:00,74.0,71.0,29.89,WSW,247,0.0,0.0,89,0.00,,,0.15,Rainwise IP-100,2013-06-19 01:29:00,
2013-06-18 20:34:00,74.0,71.3,29.89,WSW,247,0.0,0.0,90,0.00,,,0.15,Rainwise IP-100,2013-06-19 01:34:00,
2013-06-18 20:39:00,74.0,71.3,29.89,WSW,247,0.0,0.0,90,0.00,,,0.15,Rainwise IP-100,2013-06-19 01:39:00,
2013-06-18 20:44:00,74.0,71.3,29.89,WSW,247,0.0,0.0,90,0.00,,,0.15,Rainwise IP-100,2013-06-19 01:44:00,
2013-06-18 20:49:00,74.0,71.0,29.89,WSW,247,0.0,0.0,89,0.00,,,0.15,Rainwise IP-100,2013-06-19 01:49:00,
2013-06-18 20:54:00,74.0,71.0,29.89,WSW,247,0.0,0.0,89,0.00,,,0.15,Rainwise IP-100,2013-06-19 01:54:00,
2013-06-18 20:59:00,74.0,71.3,29.89,WSW,247,0.0,0.0,90,0.00,,,0.15,Rainwise IP-100,2013-06-19 01:59:00,
2013-06-18 21:04:00,74.0,71.3,29.89,South,180,1.0,2.0,91,0.00,,,0.15,Rainwise IP-100,2013-06-19 02:04:00,
2013-06-18 21:09:00,74.0,72.0,29.89,South,180,2.0,2.0,93,0.00,,,0.15,Rainwise IP-100,2013-06-19 02:09:00,
2013-06-18 21:14:00,74.0,72.0,29.90,South,180,0.0,3.0,93,0.00,,,0.15,Rainwise IP-100,2013-06-19 02:14:00,
2013-06-18 21:19:00,74.0,72.3,29.90,South,180,0.0,0.0,94,0.00,,,0.15,Rainwise IP-100,2013-06-19 02:19:00,
2013-06-18 21:24:00,74.0,72.3,29.90,South,180,0.0,0.0,94,0.00,,,0.15,Rainwise IP-100,2013-06-19 02:24:00,
2013-06-18 21:29:00,73.0,71.3,29.90,NE,45,7.0,7.0,94,0.00,,,0.15,Rainwise IP-100,2013-06-19 02:29:00,
2013-06-18 21:34:00,73.0,69.7,29.93,ENE,67,5.0,11.0,89,0.00,,,0.15,Rainwise IP-100,2013-06-19 02:34:00,
2013-06-18 21:39:00,74.0,69.3,29.93,NE,45,6.0,10.0,85,0.00,,,0.15,Rainwise IP-100,2013-06-19 02:39:00,
2013-06-18 21:44:00,74.0,66.3,29.93,ENE,67,6.0,11.0,76,0.00,,,0.15,Rainwise IP-100,2013-06-19 02:44:00,
2013-06-18 21:49:00,74.0,64.0,29.93,NE,45,1.0,10.0,71,0.00,,,0.15,Rainwise IP-100,2013-06-19 02:49:00,
2013-06-18 21:54:00,74.0,64.5,29.93,NE,45,7.0,15.0,72,0.00,,,0.15,Rainwise IP-100,2013-06-19 02:54:00,
2013-06-18 21:59:00,73.0,63.5,29.93,East,90,3.0,11.0,72,0.00,,,0.15,Rainwise IP-100,2013-06-19 02:59:00,
2013-06-18 22:05:00,73.0,64.0,29.94,NE,45,2.0,10.0,73,0.00,,,0.15,Rainwise IP-100,2013-06-19 03:05:00,
2013-06-18 22:10:00,72.0,63.0,29.94,SW,225,5.0,13.0,73,0.00,,,0.15,Rainwise IP-100,2013-06-19 03:10:00,
2013-06-18 22:15:00,72.0,64.0,29.93,East,90,2.0,10.0,76,0.00,,,0.15,Rainwise IP-100,2013-06-19 03:15:00,
2013-06-18 22:20:00,72.0,65.0,29.93,North,360,1.0,8.0,78,0.00,,,0.15,Rainwise IP-100,2013-06-19 03:20:00,
2013-06-18 22:25:00,71.0,64.0,29.94,NE,45,1.0,9.0,79,0.00,,,0.15,Rainwise IP-100,2013-06-19 03:25:00,
2013-06-18 22:30:00,71.0,64.5,29.94,North,360,3.0,6.0,80,0.00,,,0.15,Rainwise IP-100,2013-06-19 03:30:00,
2013-06-18 22:35:00,70.0,64.0,29.94,North,360,3.0,7.0,81,0.00,,,0.15,Rainwise IP-100,2013-06-19 03:35:00,
2013-06-18 22:40:00,70.0,64.5,29.94,West,270,1.0,7.0,82,0.00,,,0.15,Rainwise IP-100,2013-06-19 03:40:00,
2013-06-18 22:45:00,70.0,64.5,29.95,NE,45,0.0,3.0,83,0.00,,,0.15,Rainwise IP-100,2013-06-19 03:45:00,
2013-06-18 22:50:00,69.0,64.0,29.95,ENE,67,4.0,4.0,85,0.00,,,0.15,Rainwise IP-100,2013-06-19 03:50:00,
2013-06-18 22:55:00,69.0,64.5,29.96,NE,45,3.0,9.0,86,0.00,,,0.15,Rainwise IP-100,2013-06-19 03:55:00,
2013-06-18 23:00:00,68.0,63.5,29.96,North,360,3.0,10.0,86,0.00,,,0.15,Rainwise IP-100,2013-06-19 04:00:00,
2013-06-18 23:01:00,68.0,64.0,29.96,North,360,5.0,10.0,87,0.00,,,0.15,Rainwise IP-100,2013-06-19 04:01:00,
2013-06-18 23:06:00,68.0,64.0,29.96,NW,315,3.0,7.0,87,0.00,,,0.15,Rainwise IP-100,2013-06-19 04:06:00,
2013-06-18 23:11:00,68.0,64.5,29.96,ENE,67,1.0,6.0,88,0.00,,,0.15,Rainwise IP-100,2013-06-19 04:11:00,
2013-06-18 23:16:00,68.0,64.5,29.95,NW,315,1.0,7.0,89,0.00,,,0.15,Rainwise IP-100,2013-06-19 04:16:00,
2013-06-18 23:21:00,68.0,64.5,29.95,North,360,6.0,7.0,88,0.00,,,0.15,Rainwise IP-100,2013-06-19 04:21:00,
2013-06-18 23:26:00,68.0,64.5,29.95,SE,135,1.0,6.0,89,0.00,,,0.15,Rainwise IP-100,2013-06-19 04:26:00,
2013-06-18 23:31:00,68.0,65.0,29.95,SSW,202,3.0,6.0,90,0.00,,,0.15,Rainwise IP-100,2013-06-19 04:31:00,
2013-06-18 23:36:00,67.0,65.0,29.95,SW,225,3.0,5.0,93,0.00,,,0.15,Rainwise IP-100,2013-06-19 04:36:00,
2013-06-18 23:41:00,67.0,65.0,29.95,South,180,0.0,5.0,92,0.00,,,0.15,Rainwise IP-100,2013-06-19 04:41:00,
2013-06-18 23:46:00,68.0,64.5,29.94,WSW,247,3.0,3.0,88,0.00,,,0.15,Rainwise IP-100,2013-06-19 04:46:00,
2013-06-18 23:51:00,68.0,64.5,29.94,South,180,4.0,4.0,88,0.00,,,0.15,Rainwise IP-100,2013-06-19 04:51:00,
2013-06-18 23:56:00,69.0,65.0,29.93,NE,45,6.0,6.0,88,0.00,,,0.15,Rainwise IP-100,2013-06-19 04:56:00,